Retour au catalogue

STARLINK-6061

ActifCommunicationsVLEO
NORAD 56795·PAYLOAD·🇺🇸 United States

Lancé May 31, 2023 depuis Vandenberg Space Force Base

Loading…

Prochains Passages (prochaines 24 heures)

TLE

FraisSource: CelesTrak SupGP

Époque: Sep 14, 2026, 20:38 UTC

1 56795C 23078AE  26257.86020833  .00017900  00000+0  14998-2 0  2570
2 56795  70.0016 207.3168 0003023 266.1785  94.6825 14.98329302    14

Suivez STARLINK-6061 en temps réel avec AllMySat

Download on the App Store